Location: Wingville
(42.9917°N, 90.4915°W)
Time: 03:57:09
(UTC+00:00)

CUBESAT XI-V - Pass Details

Date: 07 July 2022
Orbit: 668 x 690 km, 98.1° (Epoch: 13 August)

Event Time Altitude Azimuth Distance (km) Brightness Sun altitude
Exits shadow 06:33:33 11° 103° (ESE) 2,014 ? -24.1°
Maximum altitude 06:36:20 18° 64° (ENE) 1,613 ? -24.1°
Drops below altitude 10° 06:39:27 10° 20° (NNE) 2,105 ? -24.0°
Sets 06:42:16 0° 3° (N) 3,022 ? -23.9°
